Location: Saint-Gilles les Bains
(21.0539°S, 55.2287°E)
Time: 06:38:10
(UTC+04:00)

Hubble Space Telescope - Pass Details

Date: 24 June 2021
Orbit: 535 x 539 km, 28.5° (Epoch: 28 July)

Event Time Altitude Azimuth Distance (km) Brightness Sun altitude
Exits shadow 06:28:32 - 277° (W) 2,229 3.4 -6.7°
Reaches altitude 10° 06:30:05 10° 290° (WNW) 1,790 3.0 -6.4°
Maximum altitude 06:32:42 16° 330° (NNW) 1,429 2.9 -5.8°
Drops below altitude 10° 06:35:19 10° 10° (N) 1,781 3.9 -5.2°
Sets 06:38:15 0° 31° (NNE) 2,666 5.3 -4.6°
